| time (UTC) | temp F | wind direction | speed MPH | gust MPH | rain 1hr in | rain 24hr in | rain mn in | humidity % | barometer mb |
| 20260831092532 | 79 | 169 | 0.0 | 0.0 | 0.00 | 0.00 | 0.00 | 88 | 1016.8 |
| 20260831092031 | 79 | 169 | 0.0 | 0.0 | 0.00 | 0.00 | 0.00 | 88 | 1016.7 |
| 20260831091536 | 79 | 169 | 0.0 | 0.0 | 0.00 | 0.00 | 0.00 | 88 | 1016.7 |
| 20260831091030 | 79 | 169 | 0.0 | 0.0 | 0.00 | 0.00 | 0.00 | 88 | 1016.8 |
| 20260831090530 | 79 | 169 | 0.0 | 0.0 | 0.00 | 0.00 | 0.00 | 88 | 1016.8 |
| 20260831090032 | 79 | 169 | 0.0 | 0.0 | 0.00 | 0.00 | 0.00 | 87 | 1016.7 |
| 20260831085530 | 80 | 169 | 0.0 | 0.0 | 0.00 | 0.00 | 0.00 | 87 | 1016.8 |
| 20260831085028 | 80 | 169 | 0.0 | 0.0 | 0.00 | 0.00 | 0.00 | 87 | 1017.0 |
| 20260831084532 | 80 | 169 | 0.0 | 0.0 | 0.00 | 0.00 | 0.00 | 87 | 1017.1 |
| 20260831084027 | 80 | 169 | 0.0 | 0.0 | 0.00 | 0.00 | 0.00 | 86 | 1017.0 |
| 20260831083527 | 80 | 169 | 0.0 | 0.0 | 0.00 | 0.00 | 0.00 | 86 | 1016.9 |
| 20260831083027 | 80 | 169 | 0.0 | 0.0 | 0.00 | 0.00 | 0.00 | 86 | 1017.0 |
| 20260831082528 | 80 | 169 | 0.0 | 0.0 | 0.00 | 0.00 | 0.00 | 86 | 1017.0 |
| 20260831082025 | 80 | 169 | 0.0 | 0.0 | 0.00 | 0.00 | 0.00 | 86 | 1017.0 |
| 20260831081525 | 80 | 169 | 0.0 | 0.0 | 0.00 | 0.00 | 0.00 | 86 | 1016.9 |
| 20260831081023 | 80 | 169 | 0.0 | 1.0 | 0.00 | 0.00 | 0.00 | 86 | 1016.9 |
| 20260831080523 | 80 | 169 | 0.0 | 1.0 | 0.00 | 0.00 | 0.00 | 86 | 1016.9 |
| 20260831080031 | 81 | 169 | 0.0 | 0.0 | 0.00 | 0.00 | 0.00 | 86 | 1017.0 |
| 20260831075522 | 81 | 169 | 0.0 | 0.0 | 0.00 | 0.00 | 0.00 | 85 | 1017.0 |
| 20260831075021 | 81 | 169 | 0.0 | 0.0 | 0.00 | 0.00 | 0.00 | 85 | 1017.1 |
| 20260831074521 | 81 | 169 | 0.0 | 0.0 | 0.00 | 0.00 | 0.00 | 85 | 1017.1 |
| 20260831074020 | 81 | 169 | 0.0 | 0.0 | 0.00 | 0.00 | 0.00 | 84 | 1017.1 |
| 20260831073519 | 81 | 169 | 0.0 | 0.0 | 0.00 | 0.00 | 0.00 | 85 | 1017.1 |
| 20260831073019 | 81 | 169 | 0.0 | 1.0 | 0.00 | 0.00 | 0.00 | 84 | 1017.1 |
| 20260831072521 | 81 | 169 | 0.0 | 1.0 | 0.00 | 0.00 | 0.00 | 84 | 1017.1 |
| 20260831072022 | 82 | 169 | 0.0 | 1.0 | 0.00 | 0.00 | 0.00 | 84 | 1017.1 |
| 20260831071520 | 82 | 169 | 0.0 | 1.0 | 0.00 | 0.00 | 0.00 | 84 | 1017.0 |
| 20260831071017 | 82 | 169 | 0.0 | 2.0 | 0.00 | 0.00 | 0.00 | 84 | 1017.1 |
| 20260831070519 | 82 | 169 | 0.0 | 2.0 | 0.00 | 0.00 | 0.00 | 84 | 1017.1 |
| 20260831070017 | 82 | 174 | 0.0 | 3.0 | 0.00 | 0.00 | 0.00 | 84 | 1017.1 |
| 20260831065517 | 82 | 173 | 0.0 | 3.0 | 0.00 | 0.00 | 0.00 | 84 | 1017.1 |
| 20260831065016 | 82 | 157 | 0.0 | 1.0 | 0.00 | 0.00 | 0.00 | 83 | 1017.3 |
| 20260831064515 | 82 | 157 | 0.0 | 2.0 | 0.00 | 0.00 | 0.00 | 83 | 1017.3 |
| 20260831064014 | 82 | 161 | 0.0 | 4.0 | 0.00 | 0.00 | 0.00 | 83 | 1017.2 |
| 20260831063514 | 82 | 161 | 0.0 | 4.0 | 0.00 | 0.00 | 0.00 | 83 | 1017.4 |
| 20260831063014 | 82 | 181 | 0.0 | 2.0 | 0.00 | 0.00 | 0.00 | 83 | 1017.3 |
| 20260831062515 | 82 | 188 | 0.0 | 2.0 | 0.00 | 0.00 | 0.00 | 84 | 1017.4 |
| 20260831062013 | 82 | 163 | 0.0 | 1.0 | 0.00 | 0.00 | 0.00 | 83 | 1017.3 |
| 20260831061513 | 82 | 163 | 0.0 | 2.0 | 0.00 | 0.00 | 0.00 | 83 | 1017.4 |
| 20260831061012 | 82 | 155 | 0.0 | 1.0 | 0.00 | 0.00 | 0.00 | 83 | 1017.4 |
| 20260831060512 | 82 | 145 | 0.0 | 2.0 | 0.00 | 0.00 | 0.00 | 83 | 1017.4 |
| 20260831060011 | 82 | 128 | 0.0 | 3.0 | 0.00 | 0.00 | 0.00 | 83 | 1017.4 |
| 20260831055511 | 82 | 169 | 0.0 | 3.0 | 0.00 | 0.00 | 0.00 | 83 | 1017.4 |
| 20260831055013 | 83 | 179 | 0.0 | 3.0 | 0.00 | 0.00 | 0.00 | 83 | 1017.5 |
| 20260831054511 | 83 | 194 | 0.0 | 3.0 | 0.00 | 0.00 | 0.00 | 83 | 1017.4 |
| 20260831054013 | 83 | 175 | 0.0 | 2.0 | 0.00 | 0.00 | 0.00 | 83 | 1017.5 |
| 20260831053510 | 83 | 178 | 0.0 | 2.0 | 0.00 | 0.00 | 0.00 | 83 | 1017.6 |
| 20260831053022 | 83 | 161 | 0.0 | 2.0 | 0.00 | 0.00 | 0.00 | 82 | 1017.4 |
| 20260831052508 | 83 | 160 | 0.0 | 2.0 | 0.00 | 0.00 | 0.00 | 82 | 1017.3 |
| 20260831052008 | 83 | 192 | 0.0 | 2.0 | 0.00 | 0.00 | 0.00 | 82 | 1017.3 |
| 20260831051507 | 83 | 157 | 0.0 | 2.0 | 0.00 | 0.00 | 0.00 | 82 | 1017.3 |
| 20260831051007 | 83 | 167 | 0.0 | 5.0 | 0.00 | 0.00 | 0.00 | 82 | 1017.2 |
| 20260831050507 | 83 | 158 | 0.0 | 5.0 | 0.00 | 0.00 | 0.00 | 82 | 1017.2 |
| 20260831050012 | 83 | 197 | 0.0 | 7.0 | 0.00 | 0.00 | 0.00 | 82 | 1017.1 |
| 20260831045505 | 83 | 190 | 0.0 | 7.0 | 0.00 | 0.00 | 0.00 | 82 | 1017.1 |
| 20260831045005 | 83 | 182 | 1.0 | 7.0 | 0.00 | 0.00 | 0.00 | 81 | 1017.2 |
| 20260831044505 | 83 | 163 | 0.0 | 6.0 | 0.00 | 0.00 | 0.00 | 81 | 1017.2 |
| 20260831044004 | 84 | 181 | 0.0 | 6.0 | 0.00 | 0.00 | 0.00 | 81 | 1017.1 |
| 20260831043505 | 84 | 188 | 0.0 | 2.0 | 0.00 | 0.00 | 0.00 | 81 | 1017.1 |
| 20260831043006 | 84 | 176 | 0.0 | 1.0 | 0.00 | 0.00 | 0.00 | 81 | 1017.2 |
| 20260831042506 | 84 | 175 | 0.0 | 3.0 | 0.00 | 0.00 | 0.00 | 81 | 1017.1 |
| 20260831042004 | 84 | 169 | 0.0 | 4.0 | 0.00 | 0.00 | 0.00 | 81 | 1017.1 |
| 20260831041504 | 84 | 181 | 0.0 | 5.0 | 0.00 | 0.00 | 0.00 | 80 | 1017.0 |
| 20260831041004 | 84 | 180 | 1.0 | 5.0 | 0.00 | 0.00 | 0.00 | 80 | 1016.9 |
| 20260831040504 | 84 | 173 | 0.0 | 7.0 | 0.00 | 0.00 | 0.00 | 80 | 1016.9 |
| 20260831040002 | 84 | 146 | 1.0 | 8.0 | 0.00 | 0.00 | 0.00 | 80 | 1016.9 |
| 20260831035506 | 84 | 144 | 2.0 | 7.0 | 0.00 | 0.00 | 0.00 | 79 | 1017.0 |
| 20260831035002 | 84 | 176 | 1.0 | 7.0 | 0.00 | 0.00 | 0.00 | 79 | 1016.8 |
| 20260831034503 | 84 | 167 | 3.0 | 6.0 | 0.00 | 0.00 | 0.00 | 79 | 1016.9 |
| 20260831034002 | 85 | 146 | 1.0 | 7.0 | 0.00 | 0.00 | 0.00 | 78 | 1016.8 |
| 20260831033502 | 85 | 194 | 2.0 | 7.0 | 0.00 | 0.00 | 0.00 | 78 | 1016.6 |
| 20260831033004 | 85 | 117 | 1.0 | 9.0 | 0.00 | 0.00 | 0.00 | 77 | 1016.6 |
| 20260831032502 | 85 | 179 | 2.0 | 9.0 | 0.00 | 0.00 | 0.00 | 77 | 1016.5 |
| 20260831032003 | 85 | 158 | 2.0 | 5.0 | 0.00 | 0.00 | 0.00 | 77 | 1016.6 |
| 20260831031501 | 85 | 128 | 1.0 | 5.0 | 0.00 | 0.00 | 0.00 | 76 | 1016.6 |
| 20260831031002 | 85 | 161 | 1.0 | 6.0 | 0.00 | 0.00 | 0.00 | 76 | 1016.5 |
| 20260831030501 | 85 | 165 | 2.0 | 6.0 | 0.00 | 0.00 | 0.00 | 76 | 1016.4 |
| 20260831030100 | 85 | 184 | 2.0 | 6.0 | 0.00 | 0.00 | 0.00 | 76 | 1016.3 |
| 20260831030001 | 85 | 156 | 2.0 | 6.0 | 0.00 | 0.00 | 0.00 | 76 | 1016.3 |
| 20260831025600 | 86 | 114 | 3.0 | 9.0 | 0.00 | 0.00 | 0.00 | 75 | 1016.3 |
| 20260831025100 | 86 | 159 | 4.0 | 9.0 | 0.00 | 0.00 | 0.00 | 75 | 1016.1 |
| 20260831024602 | 86 | 180 | 3.0 | 10.0 | 0.00 | 0.00 | 0.00 | 74 | 1016.1 |
| 20260831024100 | 86 | 181 | 2.0 | 11.0 | 0.00 | 0.00 | 0.00 | 74 | 1016.1 |
| 20260831023604 | 86 | 175 | 1.0 | 5.0 | 0.00 | 0.00 | 0.00 | 73 | 1016.1 |
| 20260831023059 | 86 | 184 | 2.0 | 5.0 | 0.00 | 0.00 | 0.00 | 72 | 1015.9 |
| 20260831022559 | 87 | 173 | 2.0 | 7.0 | 0.00 | 0.00 | 0.00 | 72 | 1016.0 |
| 20260831022059 | 87 | 172 | 0.0 | 9.0 | 0.00 | 0.00 | 0.00 | 71 | 1015.9 |
| 20260831021558 | 87 | 155 | 2.0 | 9.0 | 0.00 | 0.00 | 0.00 | 71 | 1015.7 |
| 20260831021058 | 87 | 182 | 1.0 | 10.0 | 0.00 | 0.00 | 0.00 | 70 | 1015.6 |
| 20260831020559 | 87 | 131 | 2.0 | 10.0 | 0.00 | 0.00 | 0.00 | 69 | 1015.6 |
| 20260831020057 | 87 | 178 | 4.0 | 7.0 | 0.00 | 0.00 | 0.00 | 69 | 1015.6 |
| 20260831015600 | 88 | 157 | 1.0 | 8.0 | 0.00 | 0.00 | 0.00 | 68 | 1015.3 |
| 20260831015056 | 88 | 149 | 4.0 | 8.0 | 0.00 | 0.00 | 0.00 | 68 | 1015.4 |
| 20260831014556 | 88 | 170 | 3.0 | 8.0 | 0.00 | 0.00 | 0.00 | 67 | 1015.3 |
| 20260831014055 | 88 | 161 | 0.0 | 5.0 | 0.00 | 0.00 | 0.00 | 66 | 1015.4 |
| 20260831013555 | 89 | 171 | 0.0 | 8.0 | 0.00 | 0.00 | 0.00 | 66 | 1015.4 |
| 20260831013108 | 89 | 170 | 3.0 | 8.0 | 0.00 | 0.00 | 0.00 | 65 | 1015.5 |
| 20260831012555 | 89 | 145 | 0.0 | 8.0 | 0.00 | 0.00 | 0.00 | 65 | 1015.5 |
| 20260831012056 | 89 | 135 | 1.0 | 6.0 | 0.00 | 0.00 | 0.00 | 64 | 1015.4 |
| 20260831011557 | 89 | 146 | 0.0 | 8.0 | 0.00 | 0.00 | 0.00 | 63 | 1015.4 |
| 20260831011054 | 90 | 172 | 1.0 | 8.0 | 0.00 | 0.00 | 0.00 | 63 | 1015.4 |
| 20260831010554 | 90 | 154 | 2.0 | 7.0 | 0.00 | 0.00 | 0.00 | 63 | 1015.3 |
| 20260831010055 | 90 | 164 | 4.0 | 9.0 | 0.00 | 0.00 | 0.00 | 62 | 1015.4 |
| 20260831005553 | 90 | 174 | 2.0 | 10.0 | 0.00 | 0.00 | 0.00 | 61 | 1015.2 |
| 20260831005053 | 91 | 141 | 2.0 | 10.0 | 0.00 | 0.00 | 0.00 | 61 | 1015.2 |
| 20260831004553 | 91 | 140 | 2.0 | 9.0 | 0.00 | 0.00 | 0.00 | 60 | 1015.1 |
| 20260831004052 | 91 | 157 | 1.0 | 11.0 | 0.00 | 0.00 | 0.00 | 59 | 1015.1 |
| 20260831003554 | 91 | 153 | 3.0 | 10.0 | 0.00 | 0.00 | 0.00 | 59 | 1015.1 |
| 20260831003103 | 91 | 160 | 3.0 | 10.0 | 0.00 | 0.00 | 0.00 | 58 | 1015.0 |
| 20260831002552 | 92 | 168 | 3.0 | 11.0 | 0.00 | 0.00 | 0.00 | 58 | 1014.9 |
| 20260831002052 | 92 | 177 | 4.0 | 11.0 | 0.00 | 0.00 | 0.00 | 57 | 1014.9 |
| 20260831001552 | 93 | 153 | 2.0 | 9.0 | 0.00 | 0.00 | 0.00 | 56 | 1014.8 |
| 20260831001052 | 93 | 179 | 1.0 | 7.0 | 0.00 | 0.00 | 0.00 | 56 | 1014.7 |
| 20260831000552 | 93 | 200 | 2.0 | 10.0 | 0.00 | 0.00 | 0.00 | 56 | 1014.7 |
| 20260831000052 | 93 | 188 | 4.0 | 10.0 | 0.00 | 0.00 | 0.00 | 55 | 1014.7 |
| 20260830235552 | 94 | 159 | 3.0 | 10.0 | 0.00 | 0.00 | 0.00 | 55 | 1014.7 |
| 20260830235051 | 94 | 134 | 3.0 | 11.0 | 0.00 | 0.00 | 0.00 | 55 | 1014.7 |
| 20260830234555 | 94 | 146 | 3.0 | 11.0 | 0.00 | 0.00 | 0.00 | 54 | 1014.6 |
| 20260830234051 | 94 | 180 | 1.0 | 11.0 | 0.00 | 0.00 | 0.00 | 54 | 1014.7 |
| 20260830233554 | 94 | 123 | 5.0 | 11.0 | 0.00 | 0.00 | 0.00 | 53 | 1014.5 |
| 20260830233053 | 95 | 184 | 4.0 | 11.0 | 0.00 | 0.00 | 0.00 | 52 | 1014.6 |
| 20260830232551 | 95 | 198 | 2.0 | 9.0 | 0.00 | 0.00 | 0.00 | 52 | 1014.4 |
| 20260830232052 | 95 | 141 | 1.0 | 11.0 | 0.00 | 0.00 | 0.00 | 52 | 1014.4 |
| 20260830231549 | 96 | 147 | 4.0 | 11.0 | 0.00 | 0.00 | 0.00 | 51 | 1014.4 |
| 20260830231049 | 96 | 144 | 4.0 | 11.0 | 0.00 | 0.00 | 0.00 | 51 | 1014.6 |
| 20260830230549 | 96 | 140 | 1.0 | 9.0 | 0.00 | 0.00 | 0.00 | 51 | 1014.6 |
| 20260830230049 | 97 | 144 | 3.0 | 9.0 | 0.00 | 0.00 | 0.00 | 50 | 1014.6 |
| 20260830225549 | 97 | 65 | 2.0 | 9.0 | 0.00 | 0.00 | 0.00 | 49 | 1014.5 |
| 20260830225048 | 97 | 131 | 3.0 | 7.0 | 0.00 | 0.00 | 0.00 | 48 | 1014.6 |
| 20260830224547 | 97 | 143 | 0.0 | 8.0 | 0.00 | 0.00 | 0.00 | 48 | 1014.5 |
| 20260830224046 | 97 | 122 | 0.0 | 8.0 | 0.00 | 0.00 | 0.00 | 47 | 1014.3 |
| 20260830223547 | 97 | 161 | 1.0 | 5.0 | 0.00 | 0.00 | 0.00 | 47 | 1014.4 |
| 20260830223107 | 97 | 130 | 0.0 | 7.0 | 0.00 | 0.00 | 0.00 | 46 | 1014.3 |
| 20260830222546 | 97 | 141 | 1.0 | 8.0 | 0.00 | 0.00 | 0.00 | 46 | 1014.4 |
| 20260830222046 | 97 | 63 | 1.0 | 9.0 | 0.00 | 0.00 | 0.00 | 46 | 1014.3 |
| 20260830221548 | 97 | 173 | 3.0 | 9.0 | 0.00 | 0.00 | 0.00 | 46 | 1014.3 |
| 20260830221044 | 97 | 111 | 3.0 | 6.0 | 0.00 | 0.00 | 0.00 | 45 | 1014.3 |
| 20260830220545 | 97 | 148 | 2.0 | 7.0 | 0.00 | 0.00 | 0.00 | 45 | 1014.5 |
| 20260830220045 | 97 | 170 | 0.0 | 9.0 | 0.00 | 0.00 | 0.00 | 46 | 1014.4 |
| 20260830215545 | 97 | 211 | 0.0 | 9.0 | 0.00 | 0.00 | 0.00 | 47 | 1014.4 |
| 20260830215045 | 97 | 130 | 1.0 | 9.0 | 0.00 | 0.00 | 0.00 | 47 | 1014.5 |
| 20260830214542 | 97 | 150 | 1.0 | 8.0 | 0.00 | 0.00 | 0.00 | 47 | 1014.5 |
| 20260830214043 | 97 | 156 | 1.0 | 8.0 | 0.00 | 0.00 | 0.00 | 47 | 1014.5 |
| 20260830213540 | 97 | 156 | 2.0 | 8.0 | 0.00 | 0.00 | 0.00 | 46 | 1014.7 |
| 20260830213040 | 98 | 107 | 1.0 | 8.0 | 0.00 | 0.00 | 0.00 | 47 | 1014.8 |
| 20260830212540 | 97 | 123 | 0.0 | 6.0 | 0.00 | 0.00 | 0.00 | 47 | 1014.7 |
| 20260830212040 | 97 | 186 | 0.0 | 10.0 | 0.00 | 0.00 | 0.00 | 47 | 1014.8 |
| 20260830211538 | 97 | 142 | 0.0 | 10.0 | 0.00 | 0.00 | 0.00 | 47 | 1014.9 |
| 20260830211038 | 97 | 132 | 0.0 | 8.0 | 0.00 | 0.00 | 0.00 | 48 | 1014.9 |
| 20260830210538 | 96 | 175 | 1.0 | 8.0 | 0.00 | 0.00 | 0.00 | 46 | 1015.1 |
| 20260830210037 | 97 | 73 | 0.0 | 9.0 | 0.00 | 0.00 | 0.00 | 46 | 1015.2 |
| 20260830205536 | 98 | 146 | 4.0 | 9.0 | 0.00 | 0.00 | 0.00 | 46 | 1015.2 |
| 20260830205036 | 98 | 196 | 2.0 | 7.0 | 0.00 | 0.00 | 0.00 | 44 | 1015.3 |
| 20260830204540 | 98 | 134 | 2.0 | 8.0 | 0.00 | 0.00 | 0.00 | 44 | 1015.4 |
| 20260830204036 | 98 | 128 | 0.0 | 7.0 | 0.00 | 0.00 | 0.00 | 45 | 1015.4 |
| 20260830203536 | 98 | 186 | 0.0 | 9.0 | 0.00 | 0.00 | 0.00 | 45 | 1015.4 |
| 20260830203034 | 98 | 142 | 2.0 | 6.0 | 0.00 | 0.00 | 0.00 | 45 | 1015.5 |
| 20260830202533 | 98 | 144 | 2.0 | 6.0 | 0.00 | 0.00 | 0.00 | 47 | 1015.7 |
| 20260830202033 | 97 | 199 | 0.0 | 2.0 | 0.00 | 0.00 | 0.00 | 49 | 1015.6 |
| 20260830201529 | 96 | 150 | 0.0 | 5.0 | 0.00 | 0.00 | 0.00 | 49 | 1015.8 |
| 20260830201029 | 96 | 175 | 1.0 | 8.0 | 0.00 | 0.00 | 0.00 | 49 | 1015.7 |
| 20260830200528 | 96 | 189 | 1.0 | 8.0 | 0.00 | 0.00 | 0.00 | 49 | 1015.9 |
| 20260830200041 | 96 | 140 | 1.0 | 4.0 | 0.00 | 0.00 | 0.00 | 47 | 1016.0 |
| 20260830195528 | 96 | 74 | 0.0 | 4.0 | 0.00 | 0.00 | 0.00 | 48 | 1016.1 |
| 20260830195026 | 97 | 132 | 1.0 | 4.0 | 0.00 | 0.00 | 0.00 | 50 | 1016.2 |
| 20260830194525 | 96 | 177 | 0.0 | 5.0 | 0.00 | 0.00 | 0.00 | 49 | 1016.2 |
| 20260830194024 | 96 | 202 | 2.0 | 5.0 | 0.00 | 0.00 | 0.00 | 49 | 1016.3 |
| 20260830193524 | 96 | 190 | 0.0 | 0.0 | 0.00 | 0.00 | 0.00 | 51 | 1016.5 |
| 20260830193022 | 96 | 181 | 0.0 | 8.0 | 0.00 | 0.00 | 0.00 | 52 | 1016.5 |
| 20260830192525 | 96 | 186 | 0.0 | 8.0 | 0.00 | 0.00 | 0.00 | 50 | 1016.7 |
| 20260830192020 | 96 | 127 | 0.0 | 9.0 | 0.00 | 0.00 | 0.00 | 51 | 1016.8 |
| 20260830191518 | 97 | 285 | 0.0 | 11.0 | 0.00 | 0.00 | 0.00 | 50 | 1016.9 |
| 20260830191018 | 97 | 144 | 2.0 | 11.0 | 0.00 | 0.00 | 0.00 | 51 | 1017.0 |
| 20260830190515 | 96 | 16 | 0.0 | 7.0 | 0.00 | 0.00 | 0.00 | 51 | 1017.1 |
| 20260830190035 | 96 | 165 | 0.0 | 8.0 | 0.00 | 0.00 | 0.00 | 50 | 1017.1 |
| 20260830185514 | 96 | 200 | 0.0 | 4.0 | 0.00 | 0.00 | 0.00 | 51 | 1017.0 |
| 20260830185011 | 95 | 96 | 0.0 | 9.0 | 0.00 | 0.00 | 0.00 | 53 | 1017.0 |
| 20260830184511 | 95 | 44 | 3.0 | 9.0 | 0.00 | 0.00 | 0.00 | 53 | 1017.1 |
| 20260830184009 | 95 | 343 | 1.0 | 3.0 | 0.00 | 0.00 | 0.00 | 54 | 1017.3 |
| 20260830183510 | 95 | 102 | 0.0 | 7.0 | 0.00 | 0.00 | 0.00 | 53 | 1017.3 |
| 20260830183010 | 95 | 200 | 0.0 | 9.0 | 0.00 | 0.00 | 0.00 | 54 | 1017.5 |
| 20260830182511 | 95 | 193 | 2.0 | 9.0 | 0.00 | 0.00 | 0.00 | 53 | 1017.6 |
| 20260830182008 | 95 | 181 | 0.0 | 5.0 | 0.00 | 0.00 | 0.00 | 54 | 1017.6 |
| 20260830181506 | 94 | 109 | 0.0 | 2.0 | 0.00 | 0.00 | 0.00 | 56 | 1017.7 |
| 20260830181005 | 93 | 88 | 0.0 | 8.0 | 0.00 | 0.00 | 0.00 | 56 | 1017.8 |
| 20260830180509 | 94 | 158 | 2.0 | 8.0 | 0.00 | 0.00 | 0.00 | 56 | 1018.0 |
| 20260830180009 | 94 | 83 | 1.0 | 6.0 | 0.00 | 0.00 | 0.00 | 56 | 1018.0 |
| 20260830175505 | 94 | 17 | 0.0 | 2.0 | 0.00 | 0.00 | 0.00 | 56 | 1017.9 |
| 20260830175005 | 93 | 239 | 0.0 | 1.0 | 0.00 | 0.00 | 0.00 | 57 | 1018.1 |
| 20260830174505 | 93 | 313 | 0.0 | 7.0 | 0.00 | 0.00 | 0.00 | 57 | 1018.3 |
| 20260830174006 | 94 | 190 | 1.0 | 7.0 | 0.00 | 0.00 | 0.00 | 57 | 1018.5 |
| 20260830173504 | 94 | 65 | 0.0 | 6.0 | 0.00 | 0.00 | 0.00 | 57 | 1018.5 |
| 20260830173005 | 94 | 119 | 0.0 | 4.0 | 0.00 | 0.00 | 0.00 | 58 | 1018.5 |
| 20260830172503 | 93 | 350 | 0.0 | 0.0 | 0.00 | 0.00 | 0.00 | 60 | 1018.5 |
| 20260830172002 | 93 | 162 | 0.0 | 1.0 | 0.00 | 0.00 | 0.00 | 61 | 1018.6 |
| 20260830171601 | 93 | 161 | 0.0 | 2.0 | 0.00 | 0.00 | 0.00 | 61 | 1018.6 |
| 20260830171501 | 93 | 163 | 0.0 | 2.0 | 0.00 | 0.00 | 0.00 | 61 | 1018.5 |
| 20260830171100 | 92 | 145 | 0.0 | 2.0 | 0.00 | 0.00 | 0.00 | 62 | 1018.6 |
| 20260830170602 | 92 | 194 | 0.0 | 5.0 | 0.00 | 0.00 | 0.00 | 61 | 1018.7 |
| 20260830170100 | 92 | 140 | 0.0 | 4.0 | 0.00 | 0.00 | 0.00 | 60 | 1018.6 |
| 20260830165601 | 92 | 157 | 0.0 | 1.0 | 0.00 | 0.00 | 0.00 | 61 | 1018.6 |
| 20260830165057 | 92 | 69 | 0.0 | 1.0 | 0.00 | 0.00 | 0.00 | 62 | 1018.7 |
| 20260830164604 | 91 | 178 | 0.0 | 1.0 | 0.00 | 0.00 | 0.00 | 62 | 1018.7 |
| 20260830164054 | 91 | 118 | 0.0 | 0.0 | 0.00 | 0.00 | 0.00 | 64 | 1018.8 |
| 20260830163552 | 90 | 145 | 0.0 | 0.0 | 0.00 | 0.00 | 0.00 | 63 | 1018.8 |
| 20260830163052 | 90 | 188 | 0.0 | 0.0 | 0.00 | 0.00 | 0.00 | 64 | 1018.9 |
| 20260830162551 | 90 | 164 | 0.0 | 0.0 | 0.00 | 0.00 | 0.00 | 64 | 1018.9 |
| 20260830162050 | 90 | 188 | 0.0 | 0.0 | 0.00 | 0.00 | 0.00 | 64 | 1018.9 |
| 20260830161551 | 90 | 150 | 0.0 | 0.0 | 0.00 | 0.00 | 0.00 | 66 | 1018.9 |
| 20260830161048 | 89 | 78 | 0.0 | 0.0 | 0.00 | 0.00 | 0.00 | 70 | 1018.9 |
| 20260830160546 | 89 | 68 | 0.0 | 0.0 | 0.00 | 0.00 | 0.00 | 68 | 1018.9 |
| 20260830160046 | 88 | 350 | 0.0 | 0.0 | 0.00 | 0.00 | 0.00 | 70 | 1018.9 |
| 20260830155546 | 88 | 174 | 0.0 | 0.0 | 0.00 | 0.00 | 0.00 | 69 | 1018.9 |
| 20260830155046 | 89 | 174 | 0.0 | 0.0 | 0.00 | 0.00 | 0.00 | 70 | 1018.8 |
| 20260830154546 | 89 | 172 | 0.0 | 0.0 | 0.00 | 0.00 | 0.00 | 70 | 1018.9 |
| 20260830154045 | 88 | 171 | 0.0 | 0.0 | 0.00 | 0.00 | 0.00 | 71 | 1018.9 |
| 20260830153544 | 88 | 172 | 0.0 | 0.0 | 0.00 | 0.00 | 0.00 | 70 | 1019.0 |
| 20260830153044 | 88 | 183 | 0.0 | 0.0 | 0.00 | 0.00 | 0.00 | 73 | 1018.9 |
| 20260830152542 | 88 | 15 | 0.0 | 0.0 | 0.00 | 0.00 | 0.00 | 73 | 1019.0 |
| 20260830152041 | 87 | 120 | 0.0 | 0.0 | 0.00 | 0.00 | 0.00 | 73 | 1019.0 |
| 20260830151542 | 87 | 133 | 0.0 | 0.0 | 0.00 | 0.00 | 0.00 | 74 | 1018.9 |
| 20260830151040 | 87 | 155 | 0.0 | 0.0 | 0.00 | 0.00 | 0.00 | 73 | 1018.9 |
| 20260830150540 | 87 | 155 | 0.0 | 0.0 | 0.00 | 0.00 | 0.00 | 74 | 1018.8 |
| 20260830150039 | 87 | 154 | 0.0 | 0.0 | 0.00 | 0.00 | 0.00 | 74 | 1018.8 |
| 20260830145538 | 87 | 144 | 0.0 | 0.0 | 0.00 | 0.00 | 0.00 | 76 | 1018.8 |
| 20260830145036 | 87 | 179 | 0.0 | 0.0 | 0.00 | 0.00 | 0.00 | 77 | 1019.0 |
| 20260830144536 | 86 | 168 | 0.0 | 0.0 | 0.00 | 0.00 | 0.00 | 78 | 1019.0 |
| 20260830144036 | 86 | 130 | 0.0 | 0.0 | 0.00 | 0.00 | 0.00 | 79 | 1018.9 |
| 20260830143536 | 86 | 160 | 0.0 | 0.0 | 0.00 | 0.00 | 0.00 | 79 | 1018.9 |
| 20260830143034 | 86 | 169 | 0.0 | 0.0 | 0.00 | 0.00 | 0.00 | 79 | 1019.0 |
| 20260830142537 | 86 | 173 | 0.0 | 0.0 | 0.00 | 0.00 | 0.00 | 80 | 1019.0 |
| 20260830142032 | 86 | 183 | 0.0 | 0.0 | 0.00 | 0.00 | 0.00 | 80 | 1018.9 |
| 20260830141531 | 85 | 156 | 0.0 | 0.0 | 0.00 | 0.00 | 0.00 | 82 | 1018.9 |
| 20260830141029 | 85 | 150 | 0.0 | 0.0 | 0.00 | 0.00 | 0.00 | 82 | 1018.9 |
| 20260830140528 | 84 | 194 | 0.0 | 0.0 | 0.00 | 0.00 | 0.00 | 83 | 1019.1 |
| 20260830140027 | 84 | 194 | 0.0 | 0.0 | 0.00 | 0.00 | 0.00 | 84 | 1019.0 |
| 20260830135526 | 84 | 192 | 0.0 | 0.0 | 0.00 | 0.00 | 0.00 | 85 | 1019.0 |
| 20260830135026 | 83 | 192 | 0.0 | 0.0 | 0.00 | 0.00 | 0.00 | 85 | 1018.8 |
| 20260830134534 | 83 | 182 | 0.0 | 0.0 | 0.00 | 0.00 | 0.00 | 85 | 1018.7 |
| 20260830134025 | 83 | 172 | 0.0 | 0.0 | 0.00 | 0.00 | 0.00 | 85 | 1018.6 |
| 20260830133524 | 83 | 172 | 0.0 | 0.0 | 0.00 | 0.00 | 0.00 | 86 | 1018.6 |
| 20260830133023 | 83 | 171 | 0.0 | 0.0 | 0.00 | 0.00 | 0.00 | 87 | 1018.5 |
| 20260830132523 | 82 | 171 | 0.0 | 0.0 | 0.00 | 0.00 | 0.00 | 88 | 1018.4 |
| 20260830132022 | 82 | 171 | 0.0 | 0.0 | 0.00 | 0.00 | 0.00 | 89 | 1018.4 |
| 20260830131527 | 81 | 171 | 0.0 | 0.0 | 0.00 | 0.00 | 0.00 | 91 | 1018.6 |
| 20260830131022 | 80 | 171 | 0.0 | 0.0 | 0.00 | 0.00 | 0.00 | 92 | 1018.5 |
| 20260830130521 | 80 | 171 | 0.0 | 0.0 | 0.00 | 0.00 | 0.00 | 92 | 1018.5 |
| 20260830130029 | 79 | 171 | 0.0 | 0.0 | 0.00 | 0.00 | 0.00 | 93 | 1018.5 |
| 20260830125521 | 79 | 171 | 0.0 | 0.0 | 0.00 | 0.00 | 0.00 | 93 | 1018.4 |
| 20260830125020 | 78 | 171 | 0.0 | 0.0 | 0.00 | 0.00 | 0.00 | 94 | 1018.2 |
| 20260830124521 | 78 | 171 | 0.0 | 0.0 | 0.00 | 0.00 | 0.00 | 94 | 1018.2 |
| 20260830124020 | 77 | 171 | 0.0 | 0.0 | 0.00 | 0.00 | 0.00 | 93 | 1018.1 |
| 20260830123520 | 77 | 171 | 0.0 | 0.0 | 0.00 | 0.00 | 0.00 | 93 | 1018.1 |
| 20260830123020 | 77 | 171 | 0.0 | 0.0 | 0.00 | 0.00 | 0.00 | 92 | 1018.1 |
| 20260830122519 | 77 | 171 | 0.0 | 0.0 | 0.00 | 0.00 | 0.00 | 92 | 1018.1 |
| 20260830122019 | 77 | 171 | 0.0 | 0.0 | 0.00 | 0.00 | 0.00 | 92 | 1018.0 |
| 20260830121518 | 77 | 171 | 0.0 | 0.0 | 0.00 | 0.00 | 0.00 | 92 | 1018.1 |
| 20260830121020 | 77 | 171 | 0.0 | 0.0 | 0.00 | 0.00 | 0.00 | 92 | 1018.0 |
| 20260830120517 | 77 | 171 | 0.0 | 0.0 | 0.00 | 0.00 | 0.00 | 92 | 1018.0 |
| 20260830120017 | 77 | 171 | 0.0 | 0.0 | 0.00 | 0.00 | 0.00 | 92 | 1017.9 |
| 20260830115516 | 77 | 171 | 0.0 | 0.0 | 0.00 | 0.00 | 0.00 | 92 | 1017.8 |
| 20260830115017 | 77 | 171 | 0.0 | 0.0 | 0.00 | 0.00 | 0.00 | 92 | 1017.9 |
| 20260830114515 | 77 | 171 | 0.0 | 0.0 | 0.00 | 0.00 | 0.00 | 92 | 1017.9 |
| 20260830114018 | 77 | 171 | 0.0 | 0.0 | 0.00 | 0.00 | 0.00 | 92 | 1017.8 |
| 20260830113615 | 77 | 171 | 0.0 | 0.0 | 0.00 | 0.00 | 0.00 | 92 | 1017.8 |
| 20260830113016 | 77 | 171 | 0.0 | 0.0 | 0.00 | 0.00 | 0.00 | 92 | 1017.8 |
| 20260830112515 | 77 | 171 | 0.0 | 0.0 | 0.00 | 0.00 | 0.00 | 91 | 1017.8 |
| 20260830112014 | 77 | 171 | 0.0 | 0.0 | 0.00 | 0.00 | 0.00 | 92 | 1017.7 |
| 20260830111513 | 78 | 171 | 0.0 | 0.0 | 0.00 | 0.00 | 0.00 | 91 | 1017.8 |
| 20260830111013 | 78 | 171 | 0.0 | 0.0 | 0.00 | 0.00 | 0.00 | 91 | 1017.7 |
| 20260830110513 | 78 | 171 | 0.0 | 0.0 | 0.00 | 0.00 | 0.00 | 91 | 1017.6 |
| 20260830110012 | 78 | 171 | 0.0 | 0.0 | 0.00 | 0.00 | 0.00 | 91 | 1017.6 |
| 20260830105511 | 78 | 171 | 0.0 | 0.0 | 0.00 | 0.00 | 0.00 | 91 | 1017.6 |
| 20260830105011 | 78 | 171 | 0.0 | 0.0 | 0.00 | 0.00 | 0.00 | 91 | 1017.6 |
| 20260830104535 | 78 | 171 | 0.0 | 0.0 | 0.00 | 0.00 | 0.00 | 91 | 1017.6 |
| 20260830104013 | 78 | 171 | 0.0 | 0.0 | 0.00 | 0.00 | 0.00 | 91 | 1017.6 |
| 20260830103514 | 78 | 171 | 0.0 | 0.0 | 0.00 | 0.00 | 0.00 | 91 | 1017.5 |
| 20260830103014 | 78 | 171 | 0.0 | 0.0 | 0.00 | 0.00 | 0.00 | 91 | 1017.5 |
| 20260830102510 | 78 | 171 | 0.0 | 0.0 | 0.00 | 0.00 | 0.00 | 91 | 1017.5 |
| 20260830102010 | 78 | 171 | 0.0 | 0.0 | 0.00 | 0.00 | 0.00 | 91 | 1017.5 |
| 20260830101512 | 78 | 171 | 0.0 | 0.0 | 0.00 | 0.00 | 0.00 | 90 | 1017.4 |
| 20260830101015 | 78 | 171 | 0.0 | 0.0 | 0.00 | 0.00 | 0.00 | 90 | 1017.4 |
| 20260830100509 | 78 | 171 | 0.0 | 0.0 | 0.00 | 0.00 | 0.00 | 90 | 1017.5 |
| 20260830100008 | 78 | 171 | 0.0 | 0.0 | 0.00 | 0.00 | 0.00 | 90 | 1017.4 |
| 20260830095508 | 78 | 171 | 0.0 | 0.0 | 0.00 | 0.00 | 0.00 | 90 | 1017.3 |
| 20260830095009 | 79 | 171 | 0.0 | 0.0 | 0.00 | 0.00 | 0.00 | 90 | 1017.3 |
| 20260830094507 | 79 | 171 | 0.0 | 0.0 | 0.00 | 0.00 | 0.00 | 89 | 1017.3 |
| 20260830094009 | 79 | 171 | 0.0 | 0.0 | 0.00 | 0.00 | 0.00 | 89 | 1017.3 |
| 20260830093506 | 79 | 171 | 0.0 | 0.0 | 0.00 | 0.00 | 0.00 | 89 | 1017.4 |
| 20260830093006 | 79 | 171 | 0.0 | 0.0 | 0.00 | 0.00 | 0.00 | 89 | 1017.3 |